Weather History for Dubois Muni, Dubois, WY, WY

Change the Weather History Date:

Monday, May 12, 2014

  Actual Average (KJAC) Record (KJAC)
Temperature  
Mean Temperature 30 °F -  
Max Temperature 37 °F 56 °F 79 °F (1960)
Min Temperature 23 °F 27 °F 9 °F (1981)
Degree Days  
Heating Degree Days 35    
Moisture  
Dew Point 22 °F    
Average Humidity 71    
Maximum Humidity 93    
Minimum Humidity 45    
Precipitation  
Precipitation 0.00 in - - ()
Sea Level Pressure  
Sea Level Pressure 30.29 in    
Wind  
Wind Speed 6 mph (ESE)    
Max Wind Speed 20 mph    
Max Gust Speed 25 mph    
Visibility 8 miles    
Events Snow    
Averages and records for this station are not official NWS values.
T = Trace of Precipitation, MM = Missing Value Source: NWS Daily Summary

Daily Weather History Graph

Daily Weather History Graph

Search for Another Location

Airport:

Trip Planner

Search our weather history database for the weather conditions in past years. The results will help you decide how hot, cold, wet, or windy it might be!

Date:

Astronomy

May. 12, 2014 Rise Set
Actual Time 5:57 AM MDT 8:33 PM MDT
Civil Twilight 5:24 AM MDT 9:06 PM MDT
Nautical Twilight 4:43 AM MDT 9:47 PM MDT
Astronomical Twilight 3:57 AM MDT 10:34 PM MDT
Moon 6:31 PM MDT (5/12) 4:43 AM MDT (5/12)
Length of Visible Light 15h 41m
Length of Day
14h 36m
Waxing Gibbous, 95% of the Moon is Illuminated
May 12
Waxing Gibbous
May 14
Full
May 21
Last Quarter
May 28
New
Jun 5
First Quarter

Hourly Weather History & Observations

Time (MDT) Temp. Windchill Dew Point Humidity Pressure Visibility Wind Dir Wind Speed Gust Speed Precip Events Conditions
12:15 AM 26.6 °F 19.1 °F 24.8 °F 93% 30.19 in 10.0 mi SE 6.9 mph - N/A   Mostly Cloudy
12:35 AM 26.6 °F 19.1 °F 24.8 °F 93% 30.19 in 10.0 mi ESE 6.9 mph - N/A   Scattered Clouds
12:55 AM 26.6 °F 20.0 °F 24.8 °F 93% 30.19 in 10.0 mi SE 5.8 mph - N/A   Mostly Cloudy
1:15 AM 26.6 °F 20.0 °F 24.8 °F 93% 30.19 in 10.0 mi SE 5.8 mph - N/A   Mostly Cloudy
1:35 AM 26.6 °F - 23.0 °F 86% 30.19 in 10.0 mi Calm Calm - N/A   Scattered Clouds
1:55 AM 26.6 °F - 23.0 °F 86% 30.19 in 10.0 mi Calm Calm - N/A   Clear
2:15 AM 26.6 °F - 23.0 °F 86% 30.19 in 10.0 mi Calm Calm - N/A   Clear
2:35 AM 26.6 °F - 23.0 °F 86% 30.19 in 10.0 mi Calm Calm - N/A   Mostly Cloudy
2:55 AM 26.6 °F - 23.0 °F 86% 30.20 in 10.0 mi Calm Calm - N/A   Overcast
3:15 AM 26.6 °F - 23.0 °F 86% 30.20 in 10.0 mi Calm Calm - N/A Snow Light Snow
3:35 AM 26.6 °F - 23.0 °F 86% 30.20 in 7.0 mi Calm Calm - N/A Snow Light Snow
3:55 AM 26.6 °F 22.6 °F 23.0 °F 86% 30.21 in 10.0 mi NNW 3.5 mph - N/A   Overcast
4:15 AM 26.6 °F 22.6 °F 23.0 °F 86% 30.21 in 10.0 mi WNW 3.5 mph - N/A   Overcast
4:35 AM 26.6 °F - 23.0 °F 86% 30.22 in 10.0 mi Calm Calm - N/A   Overcast
4:55 AM 26.6 °F - 23.0 °F 86% 30.22 in 10.0 mi Calm Calm - N/A   Overcast
5:10 AM 26.6 °F - 23.0 °F 86% 30.22 in 2.0 mi Calm Calm - N/A Snow Light Snow
5:35 AM 24.8 °F 17.9 °F 23.0 °F 93% 30.23 in 3.0 mi NW 5.8 mph - N/A Snow Light Snow
5:55 AM 24.8 °F 17.9 °F 21.2 °F 86% 30.24 in 4.0 mi WNW 5.8 mph - N/A Snow Light Snow
6:15 AM 24.8 °F 19.1 °F 21.2 °F 86% 30.24 in 2.5 mi NW 4.6 mph - N/A Snow Light Snow
6:35 AM 24.8 °F 17.9 °F 21.2 °F 86% 30.26 in 2.0 mi WNW 5.8 mph - N/A Snow Light Snow
6:55 AM 23.0 °F 18.4 °F 21.2 °F 93% 30.26 in 1.2 mi NW 3.5 mph - N/A Snow Light Snow
7:15 AM 23.0 °F 18.4 °F 21.2 °F 93% 30.27 in 1.0 mi NNW 3.5 mph - N/A Snow Light Snow
7:35 AM 24.8 °F - 21.2 °F 86% 30.27 in 1.2 mi Calm Calm - N/A Snow Light Snow
8:15 AM 24.8 °F - 21.2 °F 86% 30.28 in 0.8 mi Calm Calm - N/A Snow Light Snow
8:35 AM 26.6 °F - 21.2 °F 80% 30.29 in 1.0 mi Calm Calm - N/A Snow Light Snow
8:55 AM 26.6 °F - 21.2 °F 80% 30.29 in 1.0 mi Calm Calm - N/A Snow Light Snow
9:15 AM 28.4 °F - 23.0 °F 80% 30.29 in 1.2 mi Calm Calm - N/A Snow Light Snow
9:35 AM 28.4 °F 23.3 °F 23.0 °F 80% 30.29 in 3.0 mi SSW 4.6 mph - N/A Snow Light Snow
9:55 AM 30.2 °F 25.4 °F 24.8 °F 80% 30.29 in 10.0 mi South 4.6 mph - N/A   Overcast
10:15 AM 32.0 °F 25.6 °F 23.0 °F 69% 30.29 in 10.0 mi SSW 6.9 mph - N/A   Overcast
10:35 AM 32.0 °F 27.5 °F 23.0 °F 69% 30.29 in 10.0 mi SSE 4.6 mph - N/A   Overcast
10:55 AM 32.0 °F 24.8 °F 24.8 °F 75% 30.29 in 10.0 mi SSE 8.1 mph - N/A   Mostly Cloudy
11:15 AM 33.8 °F 27.0 °F 23.0 °F 65% 30.29 in 10.0 mi SSE 8.1 mph - N/A   Clear
11:35 AM 37.4 °F 31.4 °F 21.2 °F 52% 30.29 in 10.0 mi SE 8.1 mph - N/A   Scattered Clouds
11:55 AM 35.6 °F 30.7 °F 17.6 °F 48% 30.29 in 10.0 mi SSE 5.8 mph 17.3 mph N/A   Scattered Clouds
12:15 PM 37.4 °F 31.4 °F 19.4 °F 48% 30.28 in 10.0 mi SSE 8.1 mph 17.3 mph N/A   Scattered Clouds
12:35 PM 37.4 °F 30.8 °F 19.4 °F 48% 30.28 in 10.0 mi SE 9.2 mph - N/A   Mostly Cloudy
12:55 PM 35.6 °F 25.5 °F 21.2 °F 56% 30.28 in 10.0 mi SE 17.3 mph 23.0 mph N/A   Overcast
1:35 PM 37.4 °F 27.8 °F 24.8 °F 60% 30.30 in 10.0 mi ESE 17.3 mph 23.0 mph N/A   Mostly Cloudy
1:55 PM 37.4 °F 27.8 °F 21.2 °F 52% 30.29 in 10.0 mi ESE 17.3 mph 21.9 mph N/A   Scattered Clouds
2:15 PM 35.6 °F 24.8 °F 21.2 °F 56% 30.29 in 10.0 mi ESE 19.6 mph 25.3 mph N/A   Scattered Clouds
2:35 PM 37.4 °F 28.9 °F 21.2 °F 52% 30.30 in 10.0 mi ESE 13.8 mph 24.2 mph N/A   Mostly Cloudy
2:50 PM 37.4 °F 28.5 °F 21.2 °F 52% 30.30 in 10.0 mi ESE 15.0 mph 25.3 mph N/A   Scattered Clouds
3:15 PM 37.4 °F 27.8 °F 19.4 °F 48% 30.30 in 10.0 mi ESE 17.3 mph 21.9 mph N/A   Mostly Cloudy
3:35 PM 37.4 °F 28.2 °F 19.4 °F 48% 30.30 in 10.0 mi ESE 16.1 mph 21.9 mph N/A   Overcast
3:55 PM 37.4 °F 29.8 °F 17.6 °F 45% 30.31 in 10.0 mi ESE 11.5 mph 19.6 mph N/A   Overcast
4:15 PM 37.4 °F 29.3 °F 21.2 °F 52% 30.31 in 10.0 mi ENE 12.7 mph 18.4 mph N/A   Overcast
4:30 PM 35.6 °F 28.0 °F 21.2 °F 56% 30.32 in 10.0 mi ENE 10.4 mph 18.4 mph N/A   Overcast
4:55 PM 35.6 °F 28.0 °F 23.0 °F 60% 30.32 in 10.0 mi East 10.4 mph 18.4 mph N/A   Overcast
5:15 PM 35.6 °F 26.2 °F 23.0 °F 60% 30.32 in 10.0 mi East 15.0 mph 21.9 mph N/A   Overcast
5:35 PM 35.6 °F 27.1 °F 23.0 °F 60% 30.32 in 10.0 mi ENE 12.7 mph - N/A   Scattered Clouds
5:55 PM 35.6 °F 28.6 °F 23.0 °F 60% 30.33 in 10.0 mi East 9.2 mph - N/A   Scattered Clouds
6:15 PM 35.6 °F 28.6 °F 21.2 °F 56% 30.33 in 10.0 mi East 9.2 mph - N/A   Mostly Cloudy
6:35 PM 35.6 °F 29.2 °F 21.2 °F 56% 30.34 in 10.0 mi ESE 8.1 mph - N/A   Overcast
6:50 PM 35.6 °F 29.9 °F 21.2 °F 56% 30.34 in 10.0 mi ESE 6.9 mph - N/A   Overcast
7:15 PM 33.8 °F 27.7 °F 19.4 °F 56% 30.34 in 10.0 mi ESE 6.9 mph - N/A   Overcast
7:35 PM 33.8 °F 27.0 °F 19.4 °F 56% 30.35 in 10.0 mi ESE 8.1 mph - N/A   Overcast
7:55 PM 33.8 °F 27.7 °F 17.6 °F 52% 30.35 in 10.0 mi ESE 6.9 mph - N/A   Mostly Cloudy
8:15 PM 32.0 °F 24.8 °F 17.6 °F 55% 30.36 in 10.0 mi SE 8.1 mph - N/A   Scattered Clouds
8:35 PM 32.0 °F 24.8 °F 19.4 °F 60% 30.36 in 10.0 mi ESE 8.1 mph - N/A   Mostly Cloudy
8:55 PM 32.0 °F 23.6 °F 19.4 °F 60% 30.38 in 10.0 mi ESE 10.4 mph - N/A   Overcast
9:15 PM 32.0 °F 24.2 °F 19.4 °F 60% 30.39 in 10.0 mi ESE 9.2 mph - N/A   Overcast
9:35 PM 30.2 °F 23.4 °F 24.8 °F 80% 30.40 in 10.0 mi East 6.9 mph - N/A   Mostly Cloudy
9:55 PM 30.2 °F 24.3 °F 23.0 °F 75% 30.41 in 10.0 mi East 5.8 mph - N/A   Overcast
10:15 PM 30.2 °F - 23.0 °F 75% 30.41 in 10.0 mi Calm Calm - N/A   Mostly Cloudy
10:35 PM 28.4 °F - 23.0 °F 80% 30.41 in 10.0 mi Calm Calm - N/A   Scattered Clouds
10:55 PM 28.4 °F - 23.0 °F 80% 30.42 in 10.0 mi Calm Calm - N/A   Scattered Clouds
11:15 PM 28.4 °F 23.3 °F 24.8 °F 86% 30.42 in 10.0 mi WNW 4.6 mph - N/A   Mostly Cloudy
11:30 PM 28.4 °F 23.3 °F 24.8 °F 86% 30.42 in 10.0 mi West 4.6 mph - N/A   Mostly Cloudy